Location: Palomar Mountain Lodge
(33.3110°N, 116.8495°W)
Time: 13:41:16
(UTC-07:00)

Tiangong 2 - Pass Details

Date: 12 July 2018
Orbit: 386 x 394 km, 42.8° (Epoch: 15 July)

Event Time Altitude Azimuth Distance (km) Brightness Sun altitude
Rises 21:18:10 0° 254° (WSW) 2,253 5.5 -14.7°
Reaches altitude 10° 21:20:18 10° 262° (W) 1,400 4.5 -15.1°
Maximum altitude 21:23:19 43° 335° (NNW) 552 2.3 -15.6°
Drops below altitude 10° 21:26:22 10° 49° (NE) 1,403 3.8 -16.1°
Enters shadow 21:27:33 - 54° (NE) 1,877 4.4 -16.2°
